Time,TemperatureF,DewpointF,PressureIn,WindDirection,WindDirectionDegrees,WindSpeedMPH,WindSpeedGustMPH,Humidity,HourlyPrecipIn,Conditions,Clouds,dailyrainin,SoftwareType,DateUTC
2013-07-25 00:13:00,67.3,55.0,29.88,NW,310,1.0,6.0,66,0.00,,,0.00,weatherlink.com 1.10,2013-07-25 04:13:00,
2013-07-25 00:28:00,67.0,56.0,29.88,NNE,16,0.0,4.0,67,0.00,,,0.00,weatherlink.com 1.10,2013-07-25 04:28:00,
2013-07-25 00:43:00,66.8,56.0,29.88,WNW,300,0.0,5.0,68,0.00,,,0.00,weatherlink.com 1.10,2013-07-25 04:43:00,
2013-07-25 00:58:00,66.6,56.0,29.89,South,172,0.0,4.0,68,0.00,,,0.00,weatherlink.com 1.10,2013-07-25 04:58:00,
2013-07-25 01:13:00,66.6,56.0,29.88,North,355,0.0,2.0,68,0.00,,,0.00,weatherlink.com 1.10,2013-07-25 05:13:00,
2013-07-25 01:28:00,66.5,55.0,29.88,East,83,1.0,5.0,66,0.00,,,0.00,weatherlink.com 1.10,2013-07-25 05:28:00,
2013-07-25 01:43:00,66.6,55.0,29.88,SE,141,1.0,8.0,66,0.00,,,0.00,weatherlink.com 1.10,2013-07-25 05:43:00,
2013-07-25 01:58:00,66.6,55.0,29.87,North,355,0.0,5.0,66,0.00,,,0.00,weatherlink.com 1.10,2013-07-25 05:58:00,
2013-07-25 02:13:00,66.4,55.0,29.87,WNW,294,1.0,6.0,66,0.00,,,0.00,weatherlink.com 1.10,2013-07-25 06:13:00,
2013-07-25 02:28:00,66.2,54.0,29.87,North,355,2.0,7.0,65,0.00,,,0.00,weatherlink.com 1.10,2013-07-25 06:28:00,
2013-07-25 02:43:00,66.1,54.0,29.88,North,5,0.0,7.0,65,0.00,,,0.00,weatherlink.com 1.10,2013-07-25 06:43:00,
2013-07-25 02:58:00,65.9,54.0,29.88,SE,128,1.0,9.0,65,0.00,,,0.00,weatherlink.com 1.10,2013-07-25 06:58:00,
2013-07-25 03:13:00,65.8,54.0,29.88,ENE,58,0.0,3.0,66,0.00,,,0.00,weatherlink.com 1.10,2013-07-25 07:13:00,
2013-07-25 03:28:00,65.7,54.0,29.88,ENE,74,1.0,4.0,66,0.00,,,0.00,weatherlink.com 1.10,2013-07-25 07:28:00,
2013-07-25 03:43:00,65.7,54.0,29.88,NE,42,0.0,4.0,66,0.00,,,0.00,weatherlink.com 1.10,2013-07-25 07:43:00,
2013-07-25 03:58:00,65.6,54.0,29.88,WSW,244,0.0,2.0,66,0.00,,,0.00,weatherlink.com 1.10,2013-07-25 07:58:00,
2013-07-25 04:13:00,65.5,54.0,29.89,SE,130,2.0,7.0,66,0.00,,,0.00,weatherlink.com 1.10,2013-07-25 08:13:00,
2013-07-25 04:28:00,65.3,53.0,29.89,NE,49,1.0,5.0,65,0.00,,,0.00,weatherlink.com 1.10,2013-07-25 08:28:00,
2013-07-25 04:43:00,65.2,53.0,29.90,West,275,2.0,3.0,66,0.00,,,0.00,weatherlink.com 1.10,2013-07-25 08:43:00,
2013-07-25 04:58:00,65.1,53.0,29.89,NW,312,0.0,5.0,66,0.00,,,0.00,weatherlink.com 1.10,2013-07-25 08:58:00,
2013-07-25 05:13:00,64.7,53.0,29.89,NNE,32,0.0,6.0,66,0.00,,,0.00,weatherlink.com 1.10,2013-07-25 09:13:00,
2013-07-25 05:28:00,64.5,53.0,29.89,WNW,285,0.0,5.0,66,0.00,,,0.00,weatherlink.com 1.10,2013-07-25 09:28:00,
2013-07-25 05:43:00,64.4,52.0,29.90,ENE,64,1.0,4.0,65,0.00,,,0.00,weatherlink.com 1.10,2013-07-25 09:43:00,
2013-07-25 05:58:00,64.4,52.0,29.90,North,355,2.0,5.0,65,0.00,,,0.00,weatherlink.com 1.10,2013-07-25 09:58:00,
2013-07-25 06:13:00,64.2,52.0,29.90,NE,55,1.0,5.0,65,0.00,,,0.00,weatherlink.com 1.10,2013-07-25 10:13:00,
2013-07-25 06:28:00,64.2,52.0,29.89,NNW,336,0.0,4.0,64,0.00,,,0.00,weatherlink.com 1.10,2013-07-25 10:28:00,
2013-07-25 06:43:00,64.1,51.0,29.90,NE,48,1.0,7.0,63,0.00,,,0.00,weatherlink.com 1.10,2013-07-25 10:43:00,
2013-07-25 06:59:00,64.1,51.0,29.91,ESE,108,2.0,4.0,63,0.00,,,0.00,weatherlink.com 1.10,2013-07-25 10:59:00,
2013-07-25 07:14:00,64.0,51.0,29.91,North,355,0.0,4.0,63,0.00,,,0.00,weatherlink.com 1.10,2013-07-25 11:14:00,
2013-07-25 07:29:00,64.0,51.0,29.93,SSW,195,0.0,5.0,63,0.00,,,0.00,weatherlink.com 1.10,2013-07-25 11:29:00,
2013-07-25 07:44:00,64.0,51.0,29.94,East,85,0.0,4.0,63,0.00,,,0.00,weatherlink.com 1.10,2013-07-25 11:44:00,
2013-07-25 07:59:00,64.1,52.0,29.94,West,267,1.0,4.0,64,0.00,,,0.00,weatherlink.com 1.10,2013-07-25 11:59:00,
2013-07-25 08:14:00,64.2,52.0,29.94,NNE,30,1.0,6.0,64,0.00,,,0.00,weatherlink.com 1.10,2013-07-25 12:14:00,
2013-07-25 08:29:00,64.3,52.0,29.94,East,82,0.0,4.0,64,0.00,,,0.00,weatherlink.com 1.10,2013-07-25 12:29:00,
2013-07-25 08:44:00,64.6,52.0,29.95,NW,312,4.0,5.0,65,0.00,,,0.00,weatherlink.com 1.10,2013-07-25 12:44:00,
2013-07-25 08:59:00,65.2,53.0,29.95,ENE,77,0.0,3.0,65,0.00,,,0.00,weatherlink.com 1.10,2013-07-25 12:59:00,
2013-07-25 09:14:00,65.6,54.0,29.96,North,355,0.0,5.0,66,0.00,,,0.00,weatherlink.com 1.10,2013-07-25 13:14:00,
2013-07-25 09:29:00,65.9,53.0,29.96,East,85,0.0,6.0,64,0.00,,,0.00,weatherlink.com 1.10,2013-07-25 13:29:00,
2013-07-25 09:44:00,65.8,54.0,29.95,NNW,331,2.0,5.0,65,0.00,,,0.00,weatherlink.com 1.10,2013-07-25 13:44:00,
2013-07-25 09:59:00,65.5,54.0,29.96,SE,125,1.0,5.0,67,0.00,,,0.00,weatherlink.com 1.10,2013-07-25 13:59:00,
2013-07-25 10:14:00,65.8,54.0,29.96,West,281,1.0,4.0,67,0.00,,,0.00,weatherlink.com 1.10,2013-07-25 14:14:00,
2013-07-25 10:29:00,66.1,55.0,29.96,SE,134,1.0,5.0,67,0.00,,,0.00,weatherlink.com 1.10,2013-07-25 14:29:00,
2013-07-25 10:44:00,66.2,55.0,29.96,ENE,57,0.0,4.0,67,0.00,,,0.00,weatherlink.com 1.10,2013-07-25 14:44:00,
2013-07-25 10:59:00,66.1,55.0,29.97,NE,43,0.0,5.0,67,0.00,,,0.00,weatherlink.com 1.10,2013-07-25 14:59:00,
2013-07-25 11:14:00,66.1,55.0,29.96,NNW,341,2.0,6.0,67,0.00,,,0.00,weatherlink.com 1.10,2013-07-25 15:14:00,
2013-07-25 11:29:00,66.2,55.0,29.97,NE,47,0.0,4.0,68,0.00,,,0.00,weatherlink.com 1.10,2013-07-25 15:29:00,
2013-07-25 11:44:00,66.4,55.0,29.98,NNW,337,2.0,4.0,67,0.00,,,0.00,weatherlink.com 1.10,2013-07-25 15:44:00,
2013-07-25 11:59:00,66.2,55.0,29.98,SE,138,1.0,8.0,68,0.00,,,0.00,weatherlink.com 1.10,2013-07-25 15:59:00,
2013-07-25 12:14:00,66.5,56.0,29.98,North,360,0.0,3.0,69,0.00,,,0.00,weatherlink.com 1.10,2013-07-25 16:14:00,
2013-07-25 12:29:00,66.8,56.0,29.99,North,360,0.0,6.0,69,0.00,,,0.00,weatherlink.com 1.10,2013-07-25 16:29:00,
2013-07-25 12:44:00,66.7,56.0,29.98,North,360,0.0,5.0,68,0.00,,,0.00,weatherlink.com 1.10,2013-07-25 16:44:00,
2013-07-25 12:59:00,66.3,56.0,29.98,NNE,16,1.0,5.0,69,0.00,,,0.00,weatherlink.com 1.10,2013-07-25 16:59:00,
2013-07-25 13:14:00,66.1,56.0,29.99,SSW,207,1.0,4.0,71,0.00,,,0.00,weatherlink.com 1.10,2013-07-25 17:14:00,
2013-07-25 13:29:00,66.3,57.0,29.99,NNW,338,0.0,3.0,71,0.00,,,0.00,weatherlink.com 1.10,2013-07-25 17:29:00,
2013-07-25 13:44:00,66.3,57.0,29.98,WSW,246,0.0,4.0,73,0.00,,,0.00,weatherlink.com 1.10,2013-07-25 17:44:00,
2013-07-25 13:59:00,66.6,58.0,29.98,NNW,348,0.0,4.0,73,0.00,,,0.00,weatherlink.com 1.10,2013-07-25 17:59:00,
2013-07-25 14:14:00,67.1,57.0,29.98,ENE,65,0.0,4.0,71,0.00,,,0.00,weatherlink.com 1.10,2013-07-25 18:14:00,
2013-07-25 14:29:00,67.2,58.0,29.98,NE,40,0.0,4.0,72,0.00,,,0.00,weatherlink.com 1.10,2013-07-25 18:29:00,
2013-07-25 14:44:00,67.4,58.0,29.98,NNE,22,0.0,3.0,72,0.00,,,0.00,weatherlink.com 1.10,2013-07-25 18:44:00,
2013-07-25 14:59:00,67.4,58.0,29.98,North,9,0.0,6.0,73,0.00,,,0.00,weatherlink.com 1.10,2013-07-25 18:59:00,
2013-07-25 15:14:00,67.4,58.0,29.98,ENE,61,3.0,4.0,73,0.00,,,0.00,weatherlink.com 1.10,2013-07-25 19:14:00,
2013-07-25 15:29:00,67.7,59.0,29.98,ENE,67,0.0,4.0,73,0.00,,,0.00,weatherlink.com 1.10,2013-07-25 19:29:00,
2013-07-25 15:44:00,67.7,59.0,29.98,SE,130,2.0,7.0,73,0.00,,,0.00,weatherlink.com 1.10,2013-07-25 19:44:00,
2013-07-25 15:59:00,67.6,59.0,29.98,East,88,1.0,4.0,73,0.00,,,0.00,weatherlink.com 1.10,2013-07-25 19:59:00,
2013-07-25 16:14:00,67.5,59.0,29.98,WNW,285,0.0,7.0,75,0.00,,,0.00,weatherlink.com 1.10,2013-07-25 20:14:00,
2013-07-25 16:29:00,67.4,59.0,29.98,NW,315,1.0,3.0,75,0.00,,,0.00,weatherlink.com 1.10,2013-07-25 20:29:00,
2013-07-25 16:44:00,67.4,60.0,29.98,NE,34,0.0,3.0,76,0.00,,,0.00,weatherlink.com 1.10,2013-07-25 20:44:00,
2013-07-25 16:59:00,66.9,60.0,29.98,NE,51,0.0,4.0,78,0.00,,,0.00,weatherlink.com 1.10,2013-07-25 20:59:00,
2013-07-25 17:14:00,66.5,59.0,29.98,NW,306,0.0,1.0,78,0.00,,,0.00,weatherlink.com 1.10,2013-07-25 21:14:00,
2013-07-25 17:29:00,66.3,60.0,29.98,WSW,243,0.0,5.0,80,0.00,,,0.00,weatherlink.com 1.10,2013-07-25 21:29:00,
2013-07-25 17:44:00,66.4,59.0,29.97,NE,42,2.0,7.0,78,0.00,,,0.00,weatherlink.com 1.10,2013-07-25 21:44:00,
2013-07-25 17:59:00,66.5,59.0,29.97,SW,219,3.0,4.0,78,0.00,,,0.00,weatherlink.com 1.10,2013-07-25 21:59:00,
2013-07-25 18:14:00,66.6,60.0,29.98,NW,313,1.0,3.0,78,0.00,,,0.00,weatherlink.com 1.10,2013-07-25 22:14:00,
2013-07-25 18:29:00,66.7,60.0,29.98,NNW,339,1.0,3.0,78,0.00,,,0.00,weatherlink.com 1.10,2013-07-25 22:29:00,
2013-07-25 18:44:00,66.9,60.0,29.98,NE,53,0.0,2.0,78,0.00,,,0.00,weatherlink.com 1.10,2013-07-25 22:44:00,
2013-07-25 18:59:00,67.1,60.0,29.98,North,355,0.0,2.0,77,0.00,,,0.00,weatherlink.com 1.10,2013-07-25 22:59:00,
2013-07-25 19:14:00,67.2,60.0,29.98,ENE,59,0.0,3.0,77,0.00,,,0.00,weatherlink.com 1.10,2013-07-25 23:14:00,
2013-07-25 19:29:00,67.4,60.0,29.98,NE,53,1.0,1.0,78,0.00,,,0.00,weatherlink.com 1.10,2013-07-25 23:29:00,
2013-07-25 19:44:00,67.4,60.0,29.98,ENE,69,0.0,3.0,78,0.00,,,0.00,weatherlink.com 1.10,2013-07-25 23:44:00,
2013-07-25 19:59:00,67.4,60.0,29.99,NNW,327,0.0,1.0,78,0.00,,,0.00,weatherlink.com 1.10,2013-07-25 23:59:00,
2013-07-25 20:14:00,67.4,60.0,29.98,NE,49,0.0,1.0,78,0.00,,,0.00,weatherlink.com 1.10,2013-07-26 00:14:00,
2013-07-25 20:29:00,67.2,60.0,29.98,ENE,57,0.0,4.0,78,0.00,,,0.00,weatherlink.com 1.10,2013-07-26 00:29:00,
2013-07-25 20:44:00,67.1,60.0,29.98,North,360,4.0,4.0,77,0.00,,,0.00,weatherlink.com 1.10,2013-07-26 00:44:00,
2013-07-25 20:59:00,66.9,59.0,29.98,WSW,247,0.0,2.0,77,0.00,,,0.00,weatherlink.com 1.10,2013-07-26 00:59:00,
2013-07-25 21:14:00,66.7,59.0,29.98,ENE,65,0.0,6.0,76,0.00,,,0.00,weatherlink.com 1.10,2013-07-26 01:14:00,
2013-07-25 21:29:00,66.7,59.0,29.98,North,355,0.0,4.0,75,0.00,,,0.00,weatherlink.com 1.10,2013-07-26 01:29:00,
2013-07-25 21:44:00,66.8,59.0,29.98,South,172,0.0,2.0,75,0.00,,,0.00,weatherlink.com 1.10,2013-07-26 01:44:00,
2013-07-25 21:59:00,66.6,59.0,29.98,NNW,340,0.0,3.0,77,0.00,,,0.00,weatherlink.com 1.10,2013-07-26 01:59:00,
2013-07-25 22:14:00,66.4,59.0,29.99,NNW,340,0.0,1.0,77,0.00,,,0.00,weatherlink.com 1.10,2013-07-26 02:14:00,
2013-07-25 22:29:00,66.2,59.0,29.99,NNW,340,0.0,1.0,77,0.00,,,0.00,weatherlink.com 1.10,2013-07-26 02:29:00,
2013-07-25 22:44:00,66.2,59.0,29.98,NNE,20,0.0,3.0,77,0.00,,,0.00,weatherlink.com 1.10,2013-07-26 02:44:00,
2013-07-25 22:59:00,66.3,59.0,29.97,NNE,21,0.0,2.0,77,0.00,,,0.00,weatherlink.com 1.10,2013-07-26 02:59:00,
2013-07-25 23:14:00,66.2,60.0,29.98,NE,34,0.0,1.0,80,0.01,,,0.01,weatherlink.com 1.10,2013-07-26 03:14:00,
2013-07-25 23:29:00,65.7,60.0,29.98,NE,35,0.0,3.0,82,0.01,,,0.01,weatherlink.com 1.10,2013-07-26 03:29:00,
2013-07-25 23:44:00,65.3,60.0,29.98,NE,35,0.0,0.0,84,0.01,,,0.01,weatherlink.com 1.10,2013-07-26 03:44:00,
2013-07-25 23:59:00,65.0,60.0,29.98,NE,35,0.0,0.0,85,0.01,,,0.01,weatherlink.com 1.10,2013-07-26 03:59:00,